• In Uzbekistan
  • List of Countries
  • For 7 days
  • Water Temperature
  • Satellite Maps
  • Weather Map
  • Weather Widgets
  • user-avatar
    Login

    Hourly Weather Canillo

    Today, 23 January, Tuesday

    Time Temperature Precipitation Wind Pressure Humidity
    00:00 -1°C° 0 mm 3 mps 622 mmHg 79%
    01:00 -1°C° 0 mm 3 mps 622 mmHg 75%
    02:00 -2°C° 0 mm 3 mps 622 mmHg 72%
    03:00 -2°C° 0 mm 3 mps 621 mmHg 69%
    04:00 -2°C° 0 mm 3 mps 622 mmHg 67%
    05:00 -2°C° 0 mm 3 mps 622 mmHg 65%
    06:00 -2°C° 0 mm 2 mps 622 mmHg 63%
    07:00 -1°C° 0 mm 2 mps 622 mmHg 60%
    08:00 +1°C° 0 mm 2 mps 623 mmHg 57%
    09:00 +2°C° 0 mm 2 mps 624 mmHg 54%
    10:00 +4°C° 0 mm 2 mps 624 mmHg 52%
    11:00 +5°C° 0 mm 2 mps 625 mmHg 50%
    12:00 +7°C° 0 mm 2 mps 626 mmHg 48%
    13:00 +7°C° 0 mm 2 mps 625 mmHg 51%
    14:00 +7°C° 0 mm 2 mps 625 mmHg 54%
    15:00 +7°C° 0 mm 2 mps 625 mmHg 57%
    16:00 +5°C° 0 mm 2 mps 624 mmHg 64%
    17:00 +3°C° 0 mm 2 mps 624 mmHg 71%
    18:00 +2°C° 0 mm 1 mps 623 mmHg 78%
    19:00 +2°C° 0 mm 1 mps 623 mmHg 77%
    20:00 +2°C° 0 mm 1 mps 623 mmHg 76%
    21:00 +2°C° 0 mm 1 mps 623 mmHg 75%
    22:00 +2°C° 0 mm 1 mps 623 mmHg 74%
    23:00 +1°C° 0 mm 1 mps 623 mmHg 73%

    Tomorrow, 24 January, Wednesday

    Time Temperature Precipitation Wind Pressure Humidity
    00:00 +1°C° 0 mm 1 mps 623 mmHg 72%
    01:00 +1°C° 0 mm 1 mps 623 mmHg 71%
    02:00 +1°C° 0 mm 1 mps 623 mmHg 69%
    03:00 +1°C° 0 mm 1 mps 623 mmHg 68%
    04:00 +1°C° 0 mm 1 mps 622 mmHg 69%
    05:00 +1°C° 0 mm 1 mps 622 mmHg 69%
    06:00 0°C° 0 mm 1 mps 622 mmHg 69%
    07:00 +2°C° 0 mm 1 mps 622 mmHg 68%
    08:00 +2°C° 0 mm 2 mps 623 mmHg 67%
    09:00 +3°C° 0 mm 2 mps 623 mmHg 65%
    10:00 +4°C° 0 mm 2 mps 624 mmHg 62%
    11:00 +6°C° 0 mm 2 mps 624 mmHg 58%
    12:00 +8°C° 0 mm 2 mps 625 mmHg 54%
    13:00 +7°C° 0 mm 2 mps 624 mmHg 56%
    14:00 +7°C° 0 mm 2 mps 624 mmHg 58%
    15:00 +7°C° 0 mm 2 mps 623 mmHg 59%
    16:00 +5°C° 0 mm 2 mps 623 mmHg 65%
    17:00 +3°C° 0 mm 2 mps 622 mmHg 70%
    18:00 +2°C° 0 mm 1 mps 621 mmHg 76%
    19:00 +2°C° 0 mm 1 mps 621 mmHg 74%
    20:00 +1°C° 0 mm 1 mps 621 mmHg 72%
    21:00 +1°C° 0 mm 1 mps 621 mmHg 69%
    22:00 -1°C° 0 mm 2 mps 620 mmHg 70%
    23:00 -1°C° 0 mm 2 mps 620 mmHg 70%

    Day after tomorrow, 25 January, Thursday

    Time Temperature Precipitation Wind Pressure Humidity
    00:00 -1°C° 0 mm 2 mps 620 mmHg 71%
    01:00 -1°C° 0 mm 2 mps 619 mmHg 72%
    02:00 -1°C° 0 mm 2 mps 619 mmHg 73%
    03:00 -1°C° 0 mm 2 mps 619 mmHg 73%
    04:00 -1°C° 0 mm 2 mps 618 mmHg 73%
    05:00 -1°C° 0 mm 2 mps 618 mmHg 73%
    06:00 -1°C° 0 mm 2 mps 618 mmHg 73%
    07:00 +1°C° 0 mm 2 mps 618 mmHg 71%
    08:00 +1°C° 0 mm 2 mps 618 mmHg 69%
    09:00 +2°C° 0 mm 2 mps 618 mmHg 67%
    10:00 +3°C° 0 mm 2 mps 618 mmHg 63%
    11:00 +3°C° 0 mm 3 mps 619 mmHg 59%
    12:00 +5°C° 0 mm 3 mps 619 mmHg 56%
    13:00 +4°C° 0 mm 3 mps 618 mmHg 59%
    14:00 +4°C° 0 mm 3 mps 617 mmHg 63%
    15:00 +3°C° 0 mm 3 mps 617 mmHg 66%
    16:00 +3°C° 0.4 mm 2 mps 616 mmHg 74%
    17:00 +2°C° 0.4 mm 2 mps 616 mmHg 83%
    18:00 -1°C° 0.4 mm 2 mps 615 mmHg 91%
    19:00 -1°C° 0.5 mm 2 mps 615 mmHg 92%
    20:00 -2°C° 0.5 mm 2 mps 615 mmHg 93%
    21:00 -2°C° 0.5 mm 2 mps 615 mmHg 94%
    22:00 -3°C° 0.8 mm 2 mps 615 mmHg 93%
    23:00 -3°C° 0.8 mm 2 mps 615 mmHg 92%

    26 January, Friday

    Time Temperature Precipitation Wind Pressure Humidity
    00:00 -4°C° 0.8 mm 3 mps 615 mmHg 91%
    01:00 -4°C° 0.4 mm 3 mps 615 mmHg 90%
    02:00 -5°C° 0.4 mm 3 mps 615 mmHg 89%
    03:00 -5°C° 0.4 mm 3 mps 615 mmHg 88%
    04:00 -5°C° 0.4 mm 3 mps 615 mmHg 87%
    05:00 -5°C° 0.4 mm 3 mps 615 mmHg 86%
    06:00 -7°C° 0.4 mm 4 mps 616 mmHg 85%
    07:00 -5°C° 0.1 mm 4 mps 616 mmHg 84%
    08:00 -5°C° 0.1 mm 4 mps 617 mmHg 82%
    09:00 -5°C° 0.1 mm 4 mps 617 mmHg 80%
    10:00 -5°C° 0 mm 4 mps 617 mmHg 76%
    11:00 -4°C° 0 mm 4 mps 618 mmHg 71%
    12:00 -4°C° 0 mm 4 mps 618 mmHg 67%
    13:00 -4°C° 0 mm 4 mps 618 mmHg 65%
    14:00 -3°C° 0 mm 4 mps 618 mmHg 63%
    15:00 -3°C° 0 mm 4 mps 618 mmHg 62%
    16:00 -4°C° 0.1 mm 4 mps 618 mmHg 66%
    17:00 -6°C° 0.1 mm 3 mps 618 mmHg 71%
    18:00 -7°C° 0.1 mm 3 mps 618 mmHg 76%
    19:00 -7°C° 0.2 mm 3 mps 619 mmHg 77%
    20:00 -7°C° 0.2 mm 3 mps 619 mmHg 78%
    21:00 -7°C° 0.2 mm 3 mps 619 mmHg 79%
    22:00 -7°C° 0.2 mm 3 mps 619 mmHg 79%
    23:00 -7°C° 0.2 mm 3 mps 620 mmHg 79%

    27 January, Saturday

    Time Temperature Precipitation Wind Pressure Humidity
    00:00 -8°C° 0.2 mm 4 mps 620 mmHg 79%
    01:00 -8°C° 0.1 mm 4 mps 619 mmHg 79%
    02:00 -8°C° 0.1 mm 4 mps 619 mmHg 79%
    03:00 -8°C° 0.1 mm 4 mps 619 mmHg 80%
    04:00 -8°C° 0.1 mm 4 mps 619 mmHg 79%
    05:00 -8°C° 0.1 mm 4 mps 619 mmHg 79%
    06:00 -9°C° 0.1 mm 4 mps 619 mmHg 79%
    07:00 -8°C° 0 mm 4 mps 619 mmHg 76%
    08:00 -8°C° 0 mm 4 mps 620 mmHg 73%
    09:00 -7°C° 0 mm 4 mps 620 mmHg 69%
    10:00 -5°C° 0 mm 4 mps 620 mmHg 65%
    11:00 -5°C° 0 mm 4 mps 621 mmHg 61%
    12:00 -4°C° 0 mm 4 mps 621 mmHg 57%
    13:00 -4°C° 0 mm 4 mps 620 mmHg 56%
    14:00 -4°C° 0 mm 4 mps 620 mmHg 56%
    15:00 -4°C° 0 mm 4 mps 620 mmHg 56%
    16:00 -5°C° 0 mm 4 mps 619 mmHg 62%
    17:00 -7°C° 0 mm 3 mps 619 mmHg 68%
    18:00 -8°C° 0 mm 3 mps 619 mmHg 74%
    19:00 -8°C° 0.1 mm 3 mps 619 mmHg 75%
    20:00 -8°C° 0.1 mm 3 mps 620 mmHg 76%
    21:00 -8°C° 0.1 mm 3 mps 620 mmHg 78%
    22:00 -8°C° 0 mm 3 mps 621 mmHg 78%
    23:00 -8°C° 0 mm 3 mps 621 mmHg 78%

    28 January, Sunday

    Time Temperature Precipitation Wind Pressure Humidity
    00:00 -8°C° 0 mm 3 mps 621 mmHg 79%
    01:00 -8°C° 0 mm 3 mps 621 mmHg 78%
    02:00 -8°C° 0 mm 3 mps 622 mmHg 77%
    03:00 -8°C° 0 mm 3 mps 622 mmHg 76%
    04:00 -8°C° 0 mm 3 mps 622 mmHg 76%
    05:00 -8°C° 0 mm 3 mps 622 mmHg 77%
    06:00 -7°C° 0 mm 3 mps 623 mmHg 77%
    07:00 -5°C° 0 mm 2 mps 624 mmHg 76%
    08:00 -4°C° 0 mm 2 mps 625 mmHg 74%
    09:00 -3°C° 0 mm 2 mps 626 mmHg 72%
    10:00 -1°C° 0 mm 2 mps 626 mmHg 69%
    11:00 +2°C° 0 mm 2 mps 627 mmHg 65%
    12:00 +3°C° 0 mm 2 mps 627 mmHg 62%
    13:00 +3°C° 0 mm 2 mps 627 mmHg 63%
    14:00 +3°C° 0 mm 2 mps 627 mmHg 64%
    15:00 +3°C° 0 mm 2 mps 626 mmHg 66%
    16:00 +1°C° 0 mm 2 mps 626 mmHg 71%
    17:00 -2°C° 0 mm 2 mps 625 mmHg 77%
    18:00 -4°C° 0 mm 2 mps 624 mmHg 83%
    19:00 -4°C° 0 mm 2 mps 625 mmHg 79%
    20:00 -5°C° 0 mm 2 mps 625 mmHg 75%
    21:00 -5°C° 0 mm 2 mps 625 mmHg 70%
    22:00 -5°C° 0 mm 2 mps 625 mmHg 68%
    23:00 -5°C° 0 mm 2 mps 625 mmHg 66%
    Show more